This is the latest recevied weather packets stored in our database for station/object KQ4UPF. If no packets are shown the sender has not sent any weather packets the latest 10 day(s).
| Time | Temp. | Humidity | Pressure | Rain* | Wind** | Luminosity | Snow |
|---|---|---|---|---|---|---|---|
| 1777988209 | 20.56° C | 64% | 1015.6 hPa | 0 mm | - | 413 W/m² | - |
| 1777987905 | 20° C | 67% | 1015.9 hPa | 0 mm | - | 423 W/m² | - |
| 1777987601 | 19.44° C | 67% | 1015.8 hPa | 0 mm | - | 381 W/m² | - |
| 1777987299 | 19.44° C | 67% | 1015.8 hPa | 0 mm | - | 364 W/m² | - |
| 1777986995 | 18.89° C | 69% | 1015.9 hPa | 0 mm | - | 105 W/m² | - |
| 1777986693 | 18.89° C | 70% | 1016 hPa | 0 mm | - | 307 W/m² | - |
| 1777986391 | 18.89° C | 70% | 1015.8 hPa | 0 mm | - | 267 W/m² | - |
| 1777986090 | 18.33° C | 74% | 1015.9 hPa | 0 mm | - | 210 W/m² | - |
| 1777985785 | 18.33° C | 76% | 1015.7 hPa | 0 mm | - | 185 W/m² | - |
| 1777985483 | 17.78° C | 76% | 1015.6 hPa | 0 mm | - | 95 W/m² | - |
| 1777985179 | 17.22° C | 76% | 1015.8 hPa | 0 mm | - | 86 W/m² | - |
| 1777984875 | 16.67° C | 80% | 1015.7 hPa | 0 mm | - | 138 W/m² | - |
| 1777984572 | 16.11° C | 79% | 1015.6 hPa | 0 mm | - | 141 W/m² | - |
| 1777984268 | 15.56° C | 83% | 1015.7 hPa | 0 mm | - | 146 W/m² | - |
| 1777983965 | 15° C | 84% | 1015.9 hPa | 0 mm | - | 123 W/m² | - |
| 1777983662 | 14.44° C | 86% | 1015.7 hPa | 0 mm | - | 118 W/m² | - |
| 1777983359 | 13.33° C | 89% | 1015.7 hPa | 0 mm | - | 110 W/m² | - |
| 1777983056 | 12.78° C | 91% | 1015.7 hPa | 0 mm | - | 88 W/m² | - |
| 1777982752 | 12.22° C | 93% | 1015.5 hPa | 0 mm | - | 54 W/m² | - |
| 1777982448 | 12.22° C | 93% | 1015.4 hPa | 0 mm | - | 38 W/m² | - |
| 1777982142 | 12.22° C | 93% | 1015.1 hPa | 0 mm | - | 35 W/m² | - |
| 1777981840 | 11.67° C | 94% | 1015.1 hPa | 0 mm | - | 28 W/m² | - |
| 1777981537 | 11.67° C | 95% | 1014.9 hPa | 0 mm | - | 24 W/m² | - |
| 1777981233 | 11.67° C | 96% | 1014.7 hPa | 0 mm | - | 25 W/m² | - |
| 1777980930 | 11.11° C | 97% | 1014.7 hPa | 0 mm | - | 24 W/m² | - |
* Rain latest hour (hover to see other rain measurements)
** Current wind speed in m/s (hover to see current wind gust speed)